User: anonymous   Login
Location: Waldport
(44.4270°N, 124.0680°W)
Time: 17:25:43
(UTC-08:00)
Language:

Cosmos 1023 Rocket - Orbit

View from above orbital plane
View from above orbital plane
View from above satellite
View from above satellite

Ground track
Ground track

The orbit data is extracted from the following two-line orbital elements,

1 10962U 78063B   14329.48474251  .00000338  00000-0  11363-3 0  9021
2 10962 074.0791 144.1170 0026407 287.4058 135.7946 14.40765777911250
Epoch (UTC): 25 November 2014 11:38:01
Eccentricity: 0.0026407
inclination: 74.0791°
perigee height: 737 km
apogee height: 775 km
right ascension of ascending node: 144.1170°
argument of perigee: 287.4058°
revolutions per day: 14.40765777
mean anomaly at epoch: 135.7946°
orbit number at epoch: 91125

The dashed part of the orbit path shows where the satellite is in the earth's shadow,  

DLR